Home > Time Zones > World Clock > Weather > Norway > Gran > Past weeks

Flag for Norway Weather past 2 weeks in Gran, Norway

Now
54 °F

Scattered showers. Partly sunny.


Feels Like: 49 °F
Forecast: 42 / 46 °F
Wind: 17 mph from South

Location: Oslo Gardermoen Airport

Current Time: Oct 24, 2014 at 5:04:16 PM

Latest Report: Oct 24, 2014 at 4:20 PM


Visibility: N/A

Pressure: 29.77 "Hg

Humidity: 94%

Dew point: 52 °F

Location of GranLocation

Historic Weather in Gran — Graph

°F

Gran temperature yesterday

Maximum temperature yesterday: 48 °F (at 9:50 PM)
Minimum temperature yesterday: 34 °F (at 12:20 AM)
Average temperature yesterday: 40 °F

Past Weeks' High & Low Weather Summary

 TemperatureHumidityPressure
High57 °F (Oct 20, 2:50 PM)100% (Oct 10, 2:20 AM)30.12 "Hg (Oct 10, 2:20 AM)
Low30 °F (Oct 13, 6:20 AM)59% (Oct 20, 3:50 PM)29.27 "Hg (Oct 20, 2:50 AM)
Average43 °F93%29.79 "Hg
* Reported Oct 9 3:20 PM — Oct 24 3:50 PM, Gran, Weather by CustomWeather, © 2014

Note: Actual official high and low records may vary slightly from our data, if they occured in-between our weather recording intervals... More about our weather records

Advertising

Gran weather history for previous 24 hours

 ConditionsComfort  
Time TempWeatherWind HumidityBarometerVisibility
3:50 PM
Oct 24
54 °FScattered showers. Broken clouds.17 mph94%29.77 "HgN/A
3:20 PM52 °FLight rain. Partly sunny.16 mph100%29.77 "Hg6 mi
2:50 PM52 °FLight rain. Broken clouds.17 mph100%29.77 "Hg6 mi
2:20 PM52 °FLight rain. Broken clouds.15 mph94%29.77 "HgN/A
1:50 PM52 °FLight rain. Partly sunny.15 mph94%29.80 "HgN/A
1:20 PM52 °FLight rain. Partly sunny.14 mph94%29.80 "Hg6 mi
12:50 PM52 °FLight rain. Partly sunny.15 mph94%29.80 "Hg6 mi
12:20 PM52 °FLight rain. Partly sunny.15 mph94%29.80 "Hg6 mi
11:50 AM52 °FLight rain. Partly sunny.16 mph94%29.80 "Hg6 mi
11:20 AM52 °FLight rain. Partly sunny.14 mph94%29.83 "Hg4 mi
10:50 AM50 °FLight rain. Fog.15 mph100%29.83 "Hg3 mi
10:20 AM50 °FLight rain. Fog.15 mph100%29.83 "Hg2 mi
9:50 AM50 °FLight rain. Fog.15 mph100%29.83 "Hg3 mi
9:20 AM50 °FLight rain. Fog.15 mph94%29.83 "Hg2 mi
8:50 AM50 °FLight rain. Fog.14 mph94%29.83 "Hg3 mi
8:20 AM50 °FLight rain. Fog.16 mph94%29.83 "Hg3 mi
7:50 AM50 °FLight rain. Passing clouds.18 mph94%29.83 "Hg5 mi
7:20 AM50 °FPassing clouds.17 mph94%29.83 "Hg5 mi
6:50 AM50 °FPassing clouds.15 mph94%29.83 "HgN/A
6:20 AM50 °FLight rain. Passing clouds.15 mph94%29.83 "HgN/A
5:50 AM50 °FLight rain. Passing clouds.12 mph94%29.83 "HgN/A
5:20 AM50 °FLight rain. Partly cloudy.12 mph94%29.86 "HgN/A
4:50 AM48 °FLight rain. Partly cloudy.9 mph100%29.86 "HgN/A
4:20 AM48 °FPassing clouds.14 mph100%29.83 "HgN/A
3:50 AM48 °FLight rain. Partly cloudy.13 mph100%29.86 "HgN/A
3:20 AM48 °FLight rain. Partly cloudy.14 mph100%29.86 "Hg5 mi
2:50 AM48 °FLight rain. Fog.17 mph100%29.86 "Hg3 mi
2:20 AM50 °FLight rain. Fog.13 mph94%29.86 "Hg3 mi
1:50 AM48 °FLight rain. Fog.12 mph100%29.86 "Hg3 mi
1:20 AM48 °FRain. Passing clouds.14 mph100%29.86 "Hg6 mi
12:50 AM48 °FLight rain. Mostly cloudy.13 mph100%29.86 "HgN/A
12:20 AM48 °FLight rain. Mostly cloudy.13 mph100%29.89 "HgN/A
11:50 PM
Oct 23
48 °FLight rain. Mostly cloudy.13 mph94%29.89 "Hg4 mi
11:20 PM48 °FLight rain. Overcast.13 mph94%29.89 "HgN/A
10:50 PM48 °FRain. Mostly cloudy.13 mph94%29.92 "Hg6 mi
10:20 PM48 °FLight rain. Low clouds.12 mph94%29.92 "HgN/A
9:50 PM48 °FLight rain. Mostly cloudy.14 mph94%29.92 "HgN/A
9:20 PM46 °FLight rain. Low clouds.15 mph100%29.92 "HgN/A
8:50 PM46 °FLight rain. Passing clouds.14 mph100%29.92 "HgN/A
8:20 PM46 °FRain. Passing clouds.13 mph93%29.92 "Hg6 mi
7:50 PM46 °FLight rain. Passing clouds.13 mph93%29.92 "Hg4 mi
7:20 PM46 °FLight rain. Mostly cloudy.9 mph93%29.92 "HgN/A
6:50 PM45 °FLight rain. Low clouds.6 mph100%29.95 "Hg4 mi
6:20 PM45 °FLight rain. Low clouds.7 mph93%29.95 "Hg4 mi
5:50 PM43 °FLight rain. Fog.8 mph100%29.95 "Hg3 mi
5:20 PM43 °FLight rain. Fog.7 mph100%29.95 "Hg3 mi
Weather by CustomWeather, © 2014

See weather overviewHow to use our weather pages